Date String (YYYY-MM-DD hh:mm:ss) UTC,Instrument flags,Ambient pressure (hPa),Sample flow (lpm),Bypass flow (lpm),Sample temperature (°C),Ambient temperature (°C),ASC tube jacket temperature (°C),LED temperature (°C),Box temperature (°C),Sample RH (%),Span deviation,Mass concentration (μg/m³),Mass concentration (μg/m³),Mass concentration (μg/m³)
DateTimeUTC,F1_M11,P_M11,Q1_M11,Q2_M11,T1_M11,T2_M11,T3_M11,T4_M11,T5_M11,U1_M11,ZSPAN_M11,X2_M11,X0_M11,X1_M11
2021-12-29 05:00:00,,0811.5,5.01,0.00,22.6,22.2,00.0,31.6,24.3,06.0,0000.0,0003.80,0014.04,0001.44
2021-12-29 05:01:00,,0811.5,5.00,0.00,22.6,22.1,00.0,31.6,24.2,06.0,0000.0,0003.83,0015.31,0001.46
2021-12-29 05:02:00,,0811.5,4.99,0.00,22.6,22.0,00.0,31.6,24.2,06.0,0000.0,0003.81,0015.98,0001.48
2021-12-29 05:03:00,,0811.5,5.00,0.00,22.6,21.9,00.0,31.6,24.2,06.1,0000.0,0003.78,0016.23,0001.49
2021-12-29 05:04:00,,0811.4,5.00,0.00,22.5,21.8,00.0,31.6,24.1,06.1,0000.0,0003.83,0016.61,0001.51
2021-12-29 05:05:00,,0811.4,4.99,0.00,22.5,21.8,00.0,31.6,24.1,06.1,0000.0,0003.83,0017.16,0001.52
2021-12-29 05:06:00,,0811.3,5.01,0.00,22.4,21.7,00.0,31.5,24.0,06.1,0000.0,0003.79,0016.90,0001.53
2021-12-29 05:07:00,,0811.3,5.00,0.00,22.4,21.6,00.0,31.5,24.0,06.1,0000.0,0003.80,0017.55,0001.52
2021-12-29 05:08:00,,0811.3,5.01,0.00,22.4,21.6,00.0,31.5,23.9,06.1,0000.0,0003.75,0017.73,0001.51
2021-12-29 05:09:00,,0811.3,4.99,0.00,22.4,21.5,00.0,31.5,23.9,06.1,0000.0,0003.75,0017.49,0001.49
2021-12-29 05:10:00,,0811.3,5.01,0.00,22.3,21.6,00.0,31.5,23.9,06.1,0000.0,0003.74,0018.04,0001.48
2021-12-29 05:11:00,,0811.3,4.99,0.00,22.4,22.1,00.0,31.5,24.1,06.1,0000.0,0003.75,0018.81,0001.48
2021-12-29 05:12:00,,0811.3,5.01,0.00,22.5,22.9,00.0,31.5,24.4,06.1,0000.0,0003.78,0018.47,0001.50
2021-12-29 05:13:00,,0811.3,5.00,0.00,22.7,23.2,00.0,31.6,24.6,06.1,0000.0,0003.80,0017.71,0001.50
2021-12-29 05:14:00,,0811.3,4.99,0.00,22.7,23.0,00.0,31.6,24.5,06.0,0000.0,0003.81,0017.83,0001.51
2021-12-29 05:15:00,,0811.3,5.02,0.00,22.7,22.8,00.0,31.6,24.5,06.0,0000.0,0003.76,0017.58,0001.49
2021-12-29 05:16:00,,0811.4,4.98,0.00,22.7,22.6,00.0,31.6,24.4,06.0,0000.0,0003.69,0017.36,0001.49
2021-12-29 05:17:00,,0811.4,5.02,0.00,22.6,22.4,00.0,31.6,24.3,06.0,0000.0,0003.68,0018.38,0001.48
2021-12-29 05:18:00,,0811.4,4.99,0.00,22.6,22.2,00.0,31.6,24.3,06.0,0000.0,0003.61,0018.77,0001.48
2021-12-29 05:19:00,,0811.4,5.00,0.00,22.6,22.1,00.0,31.6,24.2,06.0,0000.0,0003.62,0019.07,0001.48
2021-12-29 05:20:00,,0811.4,5.00,0.00,22.5,22.0,00.0,31.6,24.1,06.1,0000.0,0003.58,0019.29,0001.48
2021-12-29 05:21:00,,0811.4,4.99,0.00,22.5,21.9,00.0,31.6,24.1,06.1,0000.0,0003.55,0019.50,0001.48
2021-12-29 05:22:00,,0811.4,5.00,0.00,22.5,21.8,00.0,31.5,24.1,06.1,0000.0,0003.48,0018.72,0001.45
2021-12-29 05:23:00,,0811.4,5.02,0.00,22.4,21.7,00.0,31.5,24.0,06.1,0000.0,0003.42,0018.02,0001.42
2021-12-29 05:24:00,,0811.4,4.98,0.00,22.4,21.7,00.0,31.5,24.0,06.1,0000.0,0003.36,0017.64,0001.40
2021-12-29 05:25:00,,0811.3,5.01,0.00,22.4,21.6,00.0,31.5,24.0,06.1,0000.0,0003.32,0016.89,0001.37
2021-12-29 05:26:00,,0811.3,5.00,0.00,22.3,21.6,00.0,31.5,23.9,06.1,0000.0,0003.28,0016.83,0001.35
2021-12-29 05:27:00,,0811.3,4.99,0.00,22.3,21.5,00.0,31.4,23.9,06.1,0000.0,0003.25,0016.43,0001.32
2021-12-29 05:28:00,,0811.4,5.02,0.00,22.3,21.5,00.0,31.4,23.9,06.1,0000.0,0003.26,0015.04,0001.29
2021-12-29 05:29:00,,0811.4,4.99,0.00,22.4,22.0,00.0,31.4,24.1,06.1,0000.0,0003.19,0013.70,0001.27
2021-12-29 05:30:00,,0811.5,5.01,0.00,22.5,22.8,00.0,31.5,24.3,06.0,0000.0,0003.17,0013.06,0001.25
2021-12-29 05:31:00,,0811.5,4.99,0.00,22.6,23.2,00.0,31.5,24.5,06.0,0000.0,0003.09,0012.97,0001.23
2021-12-29 05:32:00,,0811.5,4.99,0.00,22.7,23.0,00.0,31.5,24.5,06.0,0000.0,0003.08,0013.34,0001.22
2021-12-29 05:33:00,,0811.5,5.01,0.00,22.7,22.8,00.0,31.5,24.5,06.0,0000.0,0003.15,0013.60,0001.22
2021-12-29 05:34:00,,0811.4,4.99,0.00,22.7,22.6,00.0,31.5,24.4,05.9,0000.0,0003.11,0014.68,0001.21
2021-12-29 05:35:00,,0811.3,5.00,0.00,22.6,22.4,00.0,31.5,24.3,06.0,0000.0,0003.15,0014.59,0001.19
2021-12-29 05:36:00,,0811.3,4.99,0.00,22.6,22.2,00.0,31.5,24.3,06.0,0000.0,0003.14,0014.45,0001.18
2021-12-29 05:37:00,,0811.3,5.01,0.00,22.6,22.1,00.0,31.5,24.2,06.0,0000.0,0003.16,0014.18,0001.17
2021-12-29 05:38:00,,0811.2,4.99,0.00,22.6,22.0,00.0,31.5,24.2,06.0,0000.0,0003.24,0014.83,0001.19
2021-12-29 05:39:00,,0811.3,5.01,0.00,22.5,21.9,00.0,31.5,24.1,06.0,0000.0,0003.21,0014.28,0001.17
2021-12-29 05:40:00,,0811.4,5.00,0.00,22.5,21.8,00.0,31.5,24.1,06.0,0000.0,0003.21,0014.20,0001.16
2021-12-29 05:41:00,,0811.4,4.99,0.00,22.5,21.8,00.0,31.5,24.1,06.0,0000.0,0003.29,0013.57,0001.16
2021-12-29 05:42:00,,0811.4,5.01,0.00,22.5,21.7,00.0,31.5,24.1,06.0,0000.0,0003.32,0014.02,0001.16
2021-12-29 05:43:00,,0811.4,5.01,0.00,22.4,21.7,00.0,31.5,24.1,06.0,0000.0,0003.28,0013.13,0001.13
2021-12-29 05:44:00,,0811.4,5.00,0.00,22.4,21.6,00.0,31.5,24.1,06.0,0000.0,0003.19,0012.56,0001.11
2021-12-29 05:45:00,,0811.3,5.00,0.00,22.4,21.6,00.0,31.5,24.0,06.0,0000.0,0003.24,0012.31,0001.13
2021-12-29 05:46:00,,0811.3,4.99,0.00,22.4,21.6,00.0,31.5,24.0,06.0,0000.0,0003.20,0012.06,0001.14
2021-12-29 05:47:00,,0811.3,5.00,0.00,22.4,21.7,00.0,31.4,24.0,06.0,0000.0,0003.22,0012.14,0001.15
2021-12-29 05:48:00,,0811.3,5.00,0.00,22.4,22.3,00.0,31.5,24.2,06.0,0000.0,0003.23,0012.31,0001.15
2021-12-29 05:49:00,,0811.2,4.99,0.00,22.6,23.0,00.0,31.5,24.4,06.0,0000.0,0003.19,0013.39,0001.15
2021-12-29 05:50:00,,0811.2,5.01,0.00,22.7,23.2,00.0,31.5,24.6,05.9,0000.0,0003.22,0013.77,0001.18
2021-12-29 05:51:00,,0811.1,5.00,0.00,22.7,23.0,00.0,31.5,24.5,05.9,0000.0,0003.26,0014.11,0001.19
2021-12-29 05:52:00,,0811.0,5.01,0.00,22.7,22.7,00.0,31.6,24.5,05.9,0000.0,0003.25,0014.78,0001.19
2021-12-29 05:53:00,,0811.0,5.01,0.00,22.7,22.5,00.0,31.6,24.4,05.9,0000.0,0003.28,0014.26,0001.21
2021-12-29 05:54:00,,0811.1,4.99,0.00,22.6,22.3,00.0,31.6,24.3,06.0,0000.0,0003.35,0015.84,0001.24
2021-12-29 05:55:00,,0811.0,5.00,0.00,22.6,22.2,00.0,31.6,24.2,06.0,0000.0,0003.44,0017.24,0001.25
2021-12-29 05:56:00,,0811.0,5.01,0.00,22.6,22.1,00.0,31.6,24.2,06.0,0000.0,0003.47,0017.29,0001.24
2021-12-29 05:57:00,,0811.1,4.99,0.00,22.5,22.0,00.0,31.5,24.2,06.0,0000.0,0003.52,0018.50,0001.25
2021-12-29 05:58:00,,0811.2,5.00,0.00,22.5,21.9,00.0,31.5,24.1,06.0,0000.0,0003.55,0019.36,0001.26
2021-12-29 05:59:00,,0811.2,5.00,0.00,22.5,21.8,00.0,31.5,24.1,06.0,0000.0,0003.55,0019.15,0001.25
